• Currently

    Reported at Minneapolis, Minneapolis-St. Paul International Airport, MN
    9:53 AM CST MON MAY 29 2017
  • 59°F15°C
  • Overcast
    Overcast
  • Feels Like:59°F15°CDew Point:48°F9°CHumidity:68% Winds:NW 15 mph G 2124 kph G 34
    Pressure:29.8 in1009 hPaVisibility:10.00 miles16090.00 meters
Time Weather Temp Dew Point
Humidity Winds Visibility Pressure Precipitation
1 hr 24 hr
Tuesday, May 23
23:53 23:53 Cloudy Cloudy 56°F13°C 41°F5°C 57% NNW 6 mphNNW 9 kph 10.0 miles16.1 km 29.83 in1010 hPa 0.00 in0.03 mm --
22:53 22:53 Cloudy Cloudy 58°F14°C 42°F6°C 56% N 5 mphN 7 kph 10.0 miles16.1 km 29.83 in1010 hPa 0.00 in0.00 mm --
21:53 21:53 Cloudy Cloudy 59°F15°C 41°F5°C 51% N 12 mphN 19 kph 10.0 miles16.1 km 29.83 in1010 hPa 0.00 in0.00 mm --
20:53 20:53 Cloudy Cloudy 59°F15°C 41°F5°C 51% NW 7 mphNW 11 kph 10.0 miles16.1 km 29.83 in1010 hPa 0.00 in0.00 mm --
19:53 19:53 Mostly Cloudy Mostly Cloudy 61°F16°C 40°F4°C 46% NW 12 mphNW 19 kph 10.0 miles16.1 km 29.8 in1009 hPa 0.00 in0.00 mm --
18:53 18:53 Partly Cloudy Partly Cloudy 63°F17°C 41°F5°C 45% N 9 mphN 15 kph 10.0 miles16.1 km 29.8 in1009 hPa 0.00 in0.00 mm --
17:53 17:53 Partly Cloudy Partly Cloudy 65°F18°C 40°F4°C 40% W 13 mphW 20 kph 10.0 miles16.1 km 29.8 in1009 hPa 0.00 in0.00 mm --
16:53 16:53 Partly Cloudy Partly Cloudy 66°F19°C 42°F6°C 42% NW 13 mphNW 20 kph 10.0 miles16.1 km 29.8 in1009 hPa 0.00 in0.00 mm --
15:53 15:53 Mostly Sunny Mostly Sunny 66°F19°C 42°F6°C 42% WNW 13 mphWNW 20 kph 10.0 miles16.1 km 29.83 in1010 hPa 0.00 in0.00 mm --
14:53 14:53 Partly Cloudy Partly Cloudy 65°F18°C 43°F6°C 45% WNW 14 mphWNW 22 kph 10.0 miles16.1 km 29.83 in1010 hPa 0.00 in0.00 mm --
13:53 13:53 Partly Cloudy Partly Cloudy 64°F18°C 42°F6°C 45% W 13 mphW 20 kph 10.0 miles16.1 km 29.83 in1010 hPa 0.00 in0.00 mm --
12:53 12:53 Partly Cloudy Partly Cloudy 63°F17°C 42°F6°C 47% W 15 mphW 24 kph 10.0 miles16.1 km 29.83 in1010 hPa 0.00 in0.00 mm --
11:53 11:53 Partly Cloudy Partly Cloudy 61°F16°C 42°F6°C 50% W 15 mphW 24 kph 10.0 miles16.1 km 29.83 in1010 hPa 0.00 in0.00 mm --
10:53 10:53 Mostly Sunny Mostly Sunny 59°F15°C 42°F6°C 54% WNW 17 mphWNW 28 kph 10.0 miles16.1 km 29.85 in1011 hPa 0.00 in0.00 mm --
09:53 09:53 Mostly Sunny Mostly Sunny 57°F14°C 43°F6°C 60% SW 9 mphSW 15 kph 10.0 miles16.1 km 29.88 in1012 hPa 0.00 in0.00 mm --
08:53 08:53 Mostly Sunny Mostly Sunny 53°F12°C 42°F6°C 66% WSW 8 mphWSW 13 kph 10.0 miles16.1 km 29.88 in1012 hPa 0.00 in0.00 mm --
07:53 07:53 Mostly Sunny Mostly Sunny 50°F10°C 41°F5°C 71% WSW 6 mphWSW 9 kph 10.0 miles16.1 km 29.88 in1012 hPa 0.00 in0.00 mm --
06:53 06:53 Mostly Sunny Mostly Sunny 47°F8°C 41°F5°C 80% WSW 8 mphWSW 13 kph 10.0 miles16.1 km 29.88 in1012 hPa 0.00 in0.00 mm --
05:53 05:53 Mostly Cloudy Mostly Cloudy 46°F8°C 41°F5°C 83% SW 7 mphSW 11 kph 10.0 miles16.1 km 29.88 in1012 hPa 0.00 in0.00 mm --
04:53 04:53 Cloudy Cloudy 46°F8°C 41°F5°C 83% WSW 7 mphWSW 11 kph 10.0 miles16.1 km 29.88 in1012 hPa 0.00 in0.00 mm --
03:53 03:53 Cloudy Cloudy 45°F7°C 41°F5°C 86% SW 8 mphSW 13 kph 10.0 miles16.1 km 29.88 in1012 hPa 0.00 in0.00 mm --
02:53 02:53 Cloudy Cloudy 45°F7°C 40°F4°C 83% WSW 5 mphWSW 7 kph 10.0 miles16.1 km 29.91 in1013 hPa 0.00 in0.00 mm --
01:53 01:53 Cloudy Cloudy 46°F8°C 40°F4°C 79% WSW 8 mphWSW 13 kph 10.0 miles16.1 km 29.91 in1013 hPa 0.00 in0.00 mm --
00:53 00:53 Cloudy Cloudy 46°F8°C 40°F4°C 79% WSW 9 mphWSW 15 kph 10.0 miles16.1 km 29.91 in1013 hPa 0.00 in0.00 mm --